FENGYUN 1C DEB, 29960

Orbit data source: Space-Track

FENGYUN 1C DEB, 29960 is space debris in SSO originally from a launch on Mon, 10 May 1999 UTC launched from the Taiyaun Space Center, China (TSC). Fengyun 1C debris stems from the Chinese weather satellite Fengyun-1C, which was intentionally destroyed by a Chinese anti-satellite missile in 2007. This event dramatically increased the amount of space debris, with thousands of trackable fragments posing hazards to satellites and human spaceflight. The Fengyun 1C debris cloud has become a focal point in discussions about space sustainability and the need for international regulations to prevent the creation of new debris.

Loading next visibility...
Identifier
29960, 1999-025KJ
Orbit
SSO
Country
Flag of CNCN / PRC
Related business
Manufacturer
Unknown
Mission
Spacecraft
Bus & Motor
Unknown
Mass
Unknown
Launch date (UTC)
1999-05-10 (27 years ago)
Launch vehicle
Unknown
Launch site
Taiyaun Space Center, China (TSC)
Object type
Payload
Rocket body
Debris
Shape & HBR
Unknown shape, 0.1 m
Radar Cross Section
Medium (>0.1 m² and <1 m²)

Expand to show TLE details & history
Last TLE update: 9 hours ago

TLE from 9 hours ago
0 FENGYUN 1C DEB
1 29960U 99025KJ  26164.73257064  .00000618  00000-0  31634-3 0  9999
2 29960  98.6304 149.6951 0092579 119.8848  58.4583 14.16719248   404
Epoch: 2026-06-13T17:34Z
TLE epoch observation values (Epoch: 2026-06-13T17:34:54.103Z)
Latitude
0.6262°
Longitude
164.02078°
Altitude
804.808 km
Speed
7.469 km/s
True Right ascension
21h 59m 09s
True Declination
0° 37' 21"
Sunlit
Object was in daylight at epoch
Visualization orbit readout
Latitude
Unknown
Longitude
Unknown
Altitude
Unknown
Speed
Unknown
Apparent Right ascension
Unknown
Apparent Declination
Unknown
Sunlit
N/A
Visualization observer readout
Local Sidereal Time
12:58:29
Azimuth
Unknown
Elevation
Unknown
Doppler factor
Unknown
Orbital elements
Apogee altitude
900.394 km
Perigee altitude
766.862 km
Semi-major axis
7,211.765 km
Eccentricity
0.00926
Inclination
98.6304°
RAAN
149.6951°
Arg. of periapsis
119.8848°
True anomaly
59.36791°
Mean anomaly
58.4583°
Eccentric anomaly
58.91256°
Mean motion
3.54389 °/min
Orbital period
101.58 mins
BSTAR
0.00031634
Loading maneuver chart data...
Computing Atmospheric mass density...
Loading historical data...
Loading historical data...
Loading historical data...
Loading historical data...
Loading historical data...
Loading historical data...
Loading historical data...

Documentation

Showing up to 5 results
|